Temp
-4 -5 -6 -6 -7 -8 -8 -9 -9 -9 -10 -10 -11 -12 -12 -12 -13 -14 -14 -14 -14 -15 -15 -15 -16 -16 -16 -16 -16 -16 -16 -15 -14 -14 -14 -14 -13 -12 -11 -9 -6 -5 -4
-5 -5 -6 -7 -8 -8 -9 -9 -9 -9 -10 -10 -12 -12 -12 -13 -13 -14 -14 -14 -14 -15 -15 -15 -16 -16 -16 -16 -16 -16 -16 -15 -15 -14 -15 -14 -13 -12 -11 -9 -7 -5 -4
-5 -6 -7 -7 -8 -9 -9 -9 -9 -10 -10 -11 -12 -12 -12 -13 -13 -14 -14 -14 -15 -15 -15 -15 -16 -16 -16 -16 -16 -16 -16 -16 -15 -15 -15 -15 -14 -12 -11 -9 -7 -6 -4
-6 -6 -7 -8 -9 -9 -9 -9 -9 -10 -11 -11 -12 -12 -12 -13 -14 -14 -14 -14 -15 -15 -15 -16 -16 -16 -16 -16 -16 -16 -16 -16 -16 -16 -16 -16 -14 -13 -12 -10 -8 -6 -5
-6 -7 -8 -8 -9 -9 -9 -10 -9 -10 -11 -12 -12 -12 -13 -13 -14 -14 -14 -14 -15 -15 -15 -16 -16 -16 -16 -16 -16 -16 -16 -16 -16 -16 -16 -16 -15 -13 -12 -10 -8 -7 -5
-7 -8 -8 -9 -9 -9 -10 -9 -10 -11 -11 -12 -12 -12 -13 -14 -14 -14 -14 -14 -15 -15 -15 -16 -16 -16 -16 -16 -16 -16 -16 -16 -16 -16 -16 -16 -15 -14 -12 -10 -8 -7 -6
-7 -8 -9 -9 -9 -10 -9 -10 -10 -11 -11 -12 -12 -13 -13 -14 -14 -14 -14 -14 -15 -15 -15 -15 -16 -16 -16 -16 -16 -16 -17 -17 -17 -16 -16 -15 -15 -14 -12 -10 -9 -7 -6
-8 -9 -9 -9 -10 -10 -10 -10 -10 -10 -11 -12 -12 -13 -13 -13 -14 -14 -14 -14 -15 -15 -15 -15 -15 -16 -16 -16 -16 -16 -16 -16 -16 -16 -16 -15 -14 -13 -12 -10 -9 -7 -6
-9 -9 -9 -9 -10 -10 -10 -10 -10 -11 -12 -12 -12 -13 -13 -13 -14 -14 -14 -14 -15 -15 -15 -15 -15 -16 -16 -16 -16 -16 -16 -16 -16 -16 -15 -14 -13 -13 -12 -11 -9 -8 -7
-9 -9 -10 -10 -10 -10 -10 -10 -11 -11 -12 -12 -13 -13 -13 -13 -13 -14 -14 -14 -15 -15 -15 -15 -15 -15 -15 -15 -16 -16 -16 -16 -16 -15 -15 -14 -13 -12 -11 -10 -9 -8 -7
-9 -9 -10 -10 -10 -10 -11 -11 -11 -11 -12 -13 -13 -13 -13 -13 -13 -13 -14 -14 -14 -15 -15 -15 -15 -15 -15 -15 -15 -15 -15 -16 -15 -15 -14 -13 -12 -12 -11 -10 -10 -9 -7
-9 -9 -10 -10 -10 -11 -11 -11 -11 -12 -12 -13 -13 -13 -13 -13 -13 -13 -14 -14 -14 -15 -15 -15 -15 -15 -15 -15 -15 -15 -15 -15 -15 -15 -14 -13 -12 -11 -11 -10 -9 -9 -8
-9 -10 -10 -10 -11 -11 -11 -11 -12 -12 -12 -13 -12 -12 -12 -13 -13 -14 -14 -14 -14 -15 -15 -15 -15 -15 -15 -15 -15 -15 -15 -15 -15 -15 -14 -13 -12 -11 -11 -10 -9 -9 -8
-9 -10 -10 -10 -11 -11 -12 -11 -12 -12 -12 -12 -12 -12 -12 -13 -13 -14 -14 -14 -14 -15 -15 -15 -15 -15 -15 -15 -15 -15 -15 -15 -15 -15 -14 -13 -12 -11 -11 -10 -9 -8 -8
-10 -10 -10 -11 -11 -11 -12 -11 -11 -12 -12 -12 -12 -12 -12 -12 -12 -13 -14 -14 -14 -15 -15 -15 -15 -15 -15 -15 -15 -15 -15 -15 -15 -15 -14 -13 -12 -11 -10 -10 -9 -9 -8
-10 -10 -10 -11 -11 -11 -12 -11 -12 -12 -12 -12 -12 -13 -13 -13 -13 -13 -14 -14 -14 -15 -15 -15 -15 -15 -15 -15 -15 -15 -15 -15 -15 -15 -14 -13 -13 -12 -10 -10 -9 -9 -9
-10 -10 -10 -11 -11 -11 -12 -12 -12 -12 -12 -12 -13 -13 -13 -13 -13 -13 -13 -13 -14 -14 -14 -14 -15 -15 -15 -15 -15 -15 -15 -15 -15 -14 -14 -14 -13 -12 -11 -10 -9 -9 -9
-10 -10 -11 -11 -11 -11 -12 -12 -12 -12 -12 -12 -13 -13 -13 -13 -13 -13 -13 -14 -14 -13 -13 -14 -14 -14 -15 -15 -15 -15 -15 -15 -14 -14 -14 -14 -14 -13 -12 -12 -11 -10 -9
-10 -10 -11 -11 -11 -11 -12 -12 -12 -12 -12 -12 -13 -13 -13 -13 -13 -13 -13 -13 -13 -13 -13 -14 -14 -14 -14 -15 -15 -15 -15 -14 -14 -14 -14 -14 -14 -13 -13 -13 -12 -12 -11
-10 -10 -11 -11 -11 -11 -12 -12 -12 -12 -12 -12 -13 -13 -13 -13 -13 -13 -13 -13 -13 -13 -13 -13 -13 -14 -14 -14 -14 -15 -14 -14 -14 -14 -14 -14 -14 -13 -13 -13 -13 -13 -13
-10 -11 -11 -11 -11 -12 -12 -12 -12 -12 -12 -12 -12 -12 -13 -13 -13 -13 -13 -13 -13 -13 -13 -13 -13 -13 -14 -14 -14 -14 -14 -14 -14 -14 -14 -14 -13 -13 -13 -13 -13 -13 -13
-10 -11 -11 -11 -12 -12 -12 -12 -12 -12 -12 -12 -12 -13 -13 -13 -13 -13 -13 -13 -13 -13 -13 -13 -13 -13 -13 -13 -13 -14 -14 -14 -14 -13 -13 -13 -13 -13 -13 -13 -13 -13 -13
-10 -11 -11 -11 -12 -12 -12 -12 -12 -12 -12 -12 -12 -12 -13 -13 -13 -13 -13 -13 -13 -13 -13 -13 -13 -13 -13 -13 -13 -13 -13 -13 -13 -13 -14 -13 -13 -13 -13 -13 -12 -13 -13
-11 -11 -11 -11 -12 -12 -12 -12 -12 -12 -12 -12 -12 -12 -12 -12 -13 -13 -13 -13 -13 -13 -13 -13 -13 -13 -13 -13 -12 -13 -13 -13 -13 -13 -13 -13 -13 -13 -13 -13 -13 -13 -12
-11 -11 -11 -11 -12 -12 -12 -12 -12 -12 -12 -12 -12 -12 -12 -12 -12 -13 -13 -13 -13 -13 -13 -13 -13 -13 -13 -13 -13 -12 -12 -12 -12 -13 -13 -13 -13 -12 -12 -12 -12 -13 -13
-11 -11 -11 -11 -12 -12 -12 -12 -12 -12 -12 -12 -12 -12 -12 -12 -12 -12 -12 -13 -13 -13 -13 -13 -13 -13 -13 -13 -13 -12 -12 -12 -12 -12 -12 -12 -12 -12 -12 -12 -12 -12 -12
Height
3088 3082 3076 3072 3066 3060 3055 3050 3044 3038 3031 3023 3017 3011 3006 3000 2992 2986 2980 2973 2967 2961 2956 2952 2948 2944 2940 2937 2934 2932 2931 2929 2928 2930 2929 2930 2930 2932 2935 2940 2946 2952 2959
3085 3079 3074 3070 3064 3059 3054 3048 3043 3035 3027 3021 3015 3009 3004 2997 2990 2983 2977 2970 2964 2958 2953 2949 2944 2940 2936 2932 2930 2927 2925 2924 2923 2924 2924 2925 2926 2927 2931 2936 2942 2948 2955
3081 3074 3071 3065 3061 3056 3051 3046 3038 3032 3025 3019 3013 3009 3002 2994 2988 2981 2974 2967 2961 2955 2950 2945 2940 2936 2932 2929 2926 2923 2920 2919 2918 2919 2920 2921 2921 2923 2927 2932 2937 2944 2951
3077 3074 3068 3063 3059 3055 3049 3043 3036 3030 3023 3018 3012 3007 2999 2992 2985 2979 2972 2966 2960 2954 2948 2942 2938 2933 2929 2925 2922 2919 2917 2915 2915 2915 2916 2916 2917 2922 2925 2928 2934 2940 2947
3076 3071 3067 3061 3058 3054 3047 3041 3034 3027 3021 3016 3011 3005 2997 2990 2983 2976 2971 2966 2959 2953 2947 2941 2936 2931 2927 2922 2919 2916 2914 2913 2912 2912 2912 2913 2915 2918 2922 2925 2930 2936 2944
3073 3069 3065 3061 3058 3053 3046 3040 3033 3026 3021 3015 3010 3004 2996 2990 2983 2976 2971 2964 2959 2953 2946 2940 2935 2930 2925 2921 2917 2914 2912 2911 2911 2910 2910 2911 2913 2915 2918 2922 2928 2935 2942
3072 3067 3064 3061 3057 3052 3045 3039 3033 3026 3020 3014 3009 3003 2996 2990 2983 2977 2970 2964 2959 2952 2946 2940 2934 2928 2924 2920 2916 2913 2912 2911 2910 2909 2909 2909 2911 2913 2917 2921 2926 2932 2938
3070 3066 3063 3061 3056 3051 3046 3040 3033 3027 3020 3014 3009 3003 2997 2990 2983 2977 2970 2964 2959 2953 2947 2941 2935 2929 2924 2920 2916 2914 2912 2911 2910 2909 2908 2909 2911 2913 2917 2921 2925 2931 2938
3069 3067 3063 3060 3056 3051 3046 3041 3033 3028 3020 3013 3008 3004 2997 2991 2984 2978 2972 2966 2960 2954 2948 2942 2936 2930 2924 2921 2917 2915 2913 2912 2911 2910 2909 2909 2911 2914 2917 2921 2926 2932 2937
3069 3066 3064 3060 3055 3051 3047 3040 3035 3029 3021 3015 3009 3004 2998 2991 2985 2978 2973 2967 2962 2955 2949 2944 2937 2931 2926 2922 2920 2917 2915 2914 2913 2912 2911 2911 2913 2915 2919 2923 2927 2932 2938
3068 3066 3064 3060 3056 3052 3047 3041 3038 3030 3022 3016 3010 3005 2999 2993 2986 2980 2974 2968 2962 2956 2951 2944 2938 2932 2928 2924 2922 2920 2917 2916 2915 2914 2914 2915 2917 2919 2922 2925 2929 2932 2939
3066 3065 3063 3061 3057 3053 3047 3043 3039 3032 3025 3019 3013 3007 3002 2995 2988 2982 2976 2969 2963 2958 2952 2946 2940 2935 2930 2927 2924 2922 2920 2919 2919 2918 2918 2919 2921 2923 2926 2928 2932 2935 2940
3067 3065 3063 3061 3058 3054 3049 3046 3041 3035 3029 3022 3016 3010 3005 2999 2992 2986 2979 2973 2966 2960 2955 2949 2943 2938 2934 2931 2928 2926 2924 2923 2923 2923 2923 2923 2925 2928 2930 2933 2936 2939 2942
3069 3067 3065 3061 3059 3055 3051 3048 3043 3038 3032 3026 3020 3013 3007 3003 2997 2990 2984 2979 2972 2966 2961 2955 2948 2943 2938 2935 2932 2930 2929 2928 2927 2927 2927 2927 2929 2931 2934 2938 2941 2944 2946
3070 3069 3066 3062 3059 3056 3054 3050 3046 3041 3035 3030 3023 3015 3010 3005 2998 2992 2988 2983 2977 2972 2967 2962 2956 2949 2944 2939 2937 2935 2933 2933 2932 2931 2931 2932 2933 2935 2938 2941 2944 2947 2949
3072 3070 3067 3064 3060 3057 3055 3051 3048 3043 3038 3033 3026 3018 3013 3008 3003 2997 2992 2988 2983 2978 2974 2968 2961 2955 2949 2944 2941 2940 2939 2938 2937 2936 2936 2936 2937 2939 2941 2944 2947 2950 2953
3073 3071 3069 3065 3061 3059 3056 3053 3050 3046 3041 3036 3030 3024 3019 3013 3007 3002 2997 2993 2989 2985 2979 2973 2967 2961 2955 2951 2947 2945 2944 2943 2942 2942 2941 2941 2941 2942 2944 2946 2949 2952 2954
3074 3072 3070 3066 3063 3061 3058 3056 3052 3049 3044 3040 3035 3029 3024 3019 3014 3008 3003 2999 2996 2990 2984 2979 2973 2968 2963 2958 2955 2952 2949 2948 2948 2947 2947 2946 2946 2947 2948 2949 2951 2953 2955
3074 3072 3070 3067 3064 3062 3059 3057 3054 3051 3047 3042 3038 3034 3029 3025 3020 3015 3011 3006 2999 2995 2989 2985 2980 2975 2971 2966 2963 2959 2956 2954 2953 2953 2952 2952 2952 2952 2952 2953 2954 2955 2957
3074 3073 3070 3068 3066 3064 3061 3059 3056 3053 3050 3047 3043 3039 3034 3031 3027 3022 3016 3011 3006 3001 2996 2991 2987 2983 2979 2975 2971 2968 2964 2962 2959 2958 2958 2958 2958 2958 2958 2958 2959 2960 2961
3074 3073 3071 3069 3067 3065 3063 3061 3059 3055 3053 3050 3046 3043 3039 3035 3031 3026 3022 3018 3013 3008 3004 2999 2995 2991 2987 2984 2980 2976 2973 2970 2967 2965 2964 2964 2964 2964 2964 2965 2965 2966 2967
3075 3073 3072 3070 3068 3067 3064 3063 3060 3058 3055 3052 3049 3045 3042 3039 3035 3031 3027 3023 3019 3016 3012 3008 3004 3000 2996 2992 2989 2986 2983 2980 2977 2975 2973 2972 2971 2971 2971 2972 2972 2973 2975
3074 3074 3073 3071 3070 3068 3066 3064 3062 3059 3057 3054 3051 3048 3045 3043 3039 3035 3032 3028 3025 3022 3019 3015 3012 3008 3004 3001 2998 2995 2993 2990 2988 2985 2983 2982 2981 2979 2979 2979 2979 2980 2982
3074 3074 3073 3072 3071 3069 3067 3066 3064 3061 3058 3056 3053 3051 3048 3046 3043 3040 3036 3033 3030 3027 3024 3021 3019 3015 3012 3009 3007 3004 3001 2999 2996 2994 2994 2993 2991 2991 2991 2990 2990 2990 2990
3074 3074 3073 3072 3071 3070 3068 3067 3065 3063 3060 3057 3055 3052 3050 3048 3046 3043 3040 3037 3034 3032 3029 3026 3024 3021 3019 3016 3014 3012 3010 3008 3006 3003 3002 3001 3001 3000 2999 2999 2998 2998 2998
3073 3073 3073 3072 3071 3070 3069 3068 3066 3064 3062 3059 3057 3054 3052 3050 3047 3046 3043 3041 3038 3036 3034 3031 3028 3026 3024 3022 3020 3018 3017 3016 3015 3013 3012 3010 3009 3009 3008 3007 3007 3007 3008
Wind_Speed
33 33 32 28 26 26 27 27 28 29 30 31 26 25 27 30 29 27 26 27 26 24 22 20 18 17 17 17 16 17 15 16 17 11 14 15 17 19 17 18 24 31 37
32 32 29 26 24 25 26 27 28 29 30 28 24 26 29 30 28 27 27 27 26 24 21 18 18 18 17 17 16 16 15 15 16 12 12 15 16 18 16 19 24 29 36
32 29 26 23 23 24 25 26 28 29 29 26 24 26 30 31 28 27 27 28 27 25 22 21 20 19 18 16 14 13 13 12 13 11 11 14 16 18 17 20 25 28 35
29 25 22 21 22 24 25 26 28 30 28 24 23 26 31 31 30 27 27 27 27 25 23 22 22 21 19 17 14 12 10 9 8 8 9 13 16 16 17 21 24 28 33
25 22 19 20 22 23 24 27 29 29 26 23 23 27 32 31 31 29 27 26 27 26 25 24 23 21 19 17 14 10 7 5 4 6 8 10 11 12 17 21 24 27 30
21 18 18 19 21 22 24 27 28 27 26 22 23 27 31 31 29 27 27 27 27 27 26 25 23 20 18 16 13 9 6 3 1 2 4 5 8 12 18 22 25 27 28
18 16 17 19 20 22 24 26 27 28 26 22 24 27 30 30 28 26 26 27 27 27 27 26 23 20 17 15 12 9 7 3 3 2 2 4 8 13 18 21 24 26 27
16 14 16 18 19 21 24 25 27 29 26 23 23 25 29 31 28 25 26 26 25 26 26 27 25 20 17 16 14 10 7 6 5 4 4 6 10 13 18 22 24 25 26
13 13 15 16 19 21 22 25 29 29 26 24 24 26 28 31 28 25 25 25 24 25 26 27 26 22 19 16 14 11 9 7 7 6 6 8 11 15 17 18 20 23 26
11 13 14 16 18 20 22 26 28 28 27 24 24 27 28 31 28 26 25 24 24 24 25 25 26 25 21 17 15 13 11 10 9 9 10 10 13 16 16 17 18 20 25
10 12 14 16 18 19 22 26 26 28 29 25 24 25 27 30 28 26 26 26 28 28 27 27 28 26 22 18 16 15 15 14 13 13 14 12 14 15 16 17 18 19 21
9 11 13 14 16 18 22 24 25 28 28 26 23 23 25 29 27 26 27 29 30 30 30 30 29 26 22 19 17 17 16 15 14 14 14 14 14 15 15 18 19 18 20
9 10 11 13 15 17 20 21 23 26 28 27 23 21 23 26 27 27 28 30 31 32 32 31 28 25 22 18 17 18 16 15 14 14 16 15 15 16 15 17 20 19 18
8 9 10 13 14 17 19 20 21 23 25 27 24 23 23 23 25 28 29 29 29 29 31 31 29 26 23 20 18 16 15 15 15 16 16 16 16 16 16 16 18 18 18
7 7 11 12 14 17 17 19 20 22 24 26 28 30 26 24 28 30 30 30 30 29 29 29 29 26 24 22 20 18 17 16 16 17 17 15 15 14 15 15 15 14 15
5 8 10 12 14 16 17 19 20 20 22 25 28 33 32 29 27 27 28 29 28 27 26 28 31 30 28 26 23 20 18 17 17 16 17 16 14 14 13 14 13 13 11
5 8 9 10 14 15 16 17 18 19 21 23 26 29 30 31 30 28 27 26 25 24 25 28 30 32 32 29 26 23 20 18 17 17 17 16 15 14 13 13 13 13 12
5 7 8 9 11 13 14 16 18 19 20 21 23 25 27 28 30 30 27 23 20 24 27 29 30 31 33 32 29 25 21 18 17 17 17 16 14 13 13 12 11 10 10
5 6 7 10 11 12 13 15 17 18 19 21 22 22 23 25 27 28 27 26 26 25 27 28 29 31 32 33 33 29 25 21 19 18 18 17 16 14 13 13 12 11 11
4 5 7 9 10 12 13 14 15 16 17 18 18 19 21 21 21 23 26 29 30 30 28 27 27 27 29 30 33 31 29 25 22 20 19 18 17 16 17 17 16 14 14
3 5 7 9 11 12 13 13 14 14 15 16 17 18 18 19 20 21 23 25 27 29 30 30 29 27 27 27 29 31 31 31 28 25 22 21 18 17 17 17 18 18 18
2 4 6 8 10 11 13 14 14 15 15 15 16 17 18 19 19 20 21 22 23 25 26 27 28 28 28 26 26 27 27 28 30 30 27 25 24 21 20 18 19 20 21
2 2 4 7 9 11 13 13 14 15 15 15 15 16 16 17 18 18 19 20 20 21 22 23 24 25 26 27 27 26 24 24 26 29 30 30 30 29 25 24 23 23 22
2 2 3 5 8 10 11 13 14 15 15 15 15 15 15 15 16 17 17 17 18 18 19 20 20 21 22 23 24 25 27 26 25 24 24 25 27 29 30 30 29 28 28
4 2 2 4 6 8 9 11 12 14 15 15 14 14 14 14 14 14 15 16 16 16 16 17 18 19 19 20 20 21 24 24 25 25 24 25 27 27 27 27 28 29 27
5 4 3 4 5 6 7 9 10 12 14 15 15 15 14 13 13 13 13 13 14 14 14 15 15 16 17 18 18 18 19 20 21 22 23 22 22 24 25 25 25 26 26
Wind_Direction
333 337 339 339 338 343 342 341 340 342 344 346 351 348 347 344 348 346 344 344 342 340 334 330 328 328 325 318 311 303 297 286 278 274 265 255 254 251 240 213 201 195 195
336 338 340 337 342 345 343 342 344 346 348 349 351 351 345 351 351 348 349 349 347 344 338 337 337 335 327 320 313 304 295 286 280 270 258 253 247 243 226 205 196 193 194
337 341 335 341 346 345 345 346 349 349 350 351 353 348 351 354 353 352 352 354 353 348 343 347 344 340 334 330 322 310 299 287 277 266 240 239 237 229 209 197 192 192 192
341 334 339 347 347 347 348 350 352 352 351 354 354 353 356 356 355 356 356 357 358 350 352 352 348 345 341 339 335 323 309 292 268 246 227 233 232 217 198 189 190 191 192
336 337 344 350 349 348 352 355 354 354 352 357 354 359 359 358 356 357 358 357 359 357 358 356 351 349 345 342 341 336 328 311 265 229 224 229 222 204 189 184 186 190 192
335 342 350 352 351 352 357 357 357 356 357 358 356 3 2 360 359 357 357 359 359 1 1 358 353 351 351 352 352 352 344 337 313 212 214 207 195 189 180 179 183 187 190
339 352 352 354 354 358 359 358 0 1 358 357 1 3 3 2 1 359 358 360 1 4 4 3 1 358 359 6 9 10 21 39 61 77 147 177 176 175 171 174 180 186 188
350 353 357 354 359 1 1 2 5 1 358 1 3 4 3 5 3 3 2 1 2 7 6 7 9 9 11 15 23 30 48 54 59 62 101 137 156 165 168 171 176 180 183
353 356 359 356 4 6 5 7 10 1 2 3 5 8 6 7 6 7 6 2 4 6 6 7 11 16 21 24 28 37 47 51 49 59 89 123 145 158 163 167 172 174 178
355 1 357 2 8 8 9 14 9 6 7 6 6 6 9 7 9 10 9 7 10 11 9 12 14 20 24 30 38 45 53 54 53 67 83 111 137 148 152 158 164 171 179
4 2 0 6 11 11 15 17 8 11 12 9 9 8 9 9 11 12 11 13 15 16 17 19 19 22 26 30 41 52 56 57 61 69 80 102 125 140 144 147 158 166 174
12 3 8 8 12 16 21 16 11 15 15 13 14 13 13 12 15 16 17 17 17 20 22 21 21 23 28 34 42 48 53 60 66 72 81 100 119 134 139 144 153 163 171
11 14 5 16 17 20 24 16 15 19 18 18 19 21 21 19 21 23 23 21 21 21 24 22 22 27 33 39 44 49 52 64 70 78 85 96 113 125 131 140 144 152 162
17 16 14 23 22 25 24 17 17 19 22 25 27 30 28 26 28 33 31 27 27 26 26 25 27 31 38 46 52 56 59 67 71 80 85 91 102 116 126 133 140 145 150
19 15 28 29 28 29 23 20 18 19 21 25 28 34 30 27 28 30 30 29 31 32 27 29 34 38 45 51 56 58 61 68 70 76 83 88 96 109 122 125 134 142 148
4 19 23 26 35 31 23 21 18 17 21 25 28 32 27 27 29 29 28 26 25 27 26 31 38 41 45 51 57 61 66 73 75 77 80 87 94 104 117 125 128 131 139
356 15 15 23 32 29 26 24 20 17 20 25 29 33 28 28 29 28 27 27 26 26 29 37 42 44 46 48 52 60 64 70 75 79 81 83 91 102 109 119 131 137 141
358 6 11 21 29 27 27 24 24 20 22 25 28 32 30 29 32 32 29 26 28 33 37 39 45 47 49 50 50 53 61 70 76 78 80 81 85 94 104 114 123 133 143
351 3 14 22 24 24 26 24 25 22 21 24 25 28 31 29 31 34 34 35 38 39 41 41 43 47 49 50 51 51 56 64 75 80 82 83 83 85 91 97 105 117 134
349 6 22 25 22 23 26 24 23 25 22 24 26 29 34 32 30 33 35 37 41 43 43 44 44 47 48 48 52 52 57 64 71 77 80 82 86 88 91 93 99 109 126
343 18 30 31 29 26 26 25 21 24 24 22 26 29 33 33 32 35 36 38 40 43 44 45 45 47 51 55 53 52 55 60 67 72 77 80 84 90 94 101 105 111 120
331 26 38 36 33 28 28 27 24 23 23 23 23 28 30 32 32 34 36 38 40 42 44 46 46 49 52 55 60 61 58 60 63 71 76 81 84 88 93 101 108 115 118
304 18 36 36 31 28 26 24 25 24 24 23 22 26 27 30 34 34 35 37 40 40 42 44 45 47 51 54 59 64 66 68 70 70 72 76 81 82 84 93 101 105 108
274 316 17 26 28 29 28 24 24 24 24 24 22 24 26 26 31 36 36 37 39 41 41 43 45 48 51 55 57 63 67 69 70 73 76 80 82 86 91 93 93 94 98
255 279 345 7 13 22 24 23 22 25 24 24 23 23 25 27 27 31 37 38 38 40 41 43 46 49 52 56 58 65 69 71 75 76 75 79 83 86 86 89 92 95 95
250 267 299 334 353 3 6 11 13 19 22 22 22 21 21 23 26 28 32 36 39 40 41 44 45 50 53 54 58 61 69 74 78 81 82 79 79 82 84 86 88 91 93